Home > Weather > Warstein > Past weeks

Flag for Germany Weather for the Past 2 Weeks in Warstein, North Rhine-Westphalia, Germany

Now
59 °F

Sunny.


Feels Like: 58 °F
Forecast: 54 / 70 °F
Wind: 8 mph from Southeast

Location: Paderborn / Lippstadt

Current Time: May 6, 2016 at 10:08:38 AM

Latest Report: May 6, 2016 at 9:20 AM


Visibility: 10 mi

Pressure: 30.04 "Hg

Humidity: 68%

Dew Point: 48 °F

Location of WarsteinLocation

Historic Weather in Warstein — Graph

°F

Warstein Temperature Yesterday

Maximum temperature yesterday: 64 °F (at 3:20 PM)
Minimum temperature yesterday: 39 °F (at 6:20 AM)
Average temperature yesterday: 53 °F

High & Low Weather Summary for the Past Weeks

 TemperatureHumidityPressure
High66 °F (May 2, 3:20 PM)100% (Apr 22, 4:20 AM)30.42 "Hg (Apr 22, 4:20 AM)
Low32 °F (Apr 24, 4:20 PM)28% (May 2, 2:50 PM)29.45 "Hg (Apr 26, 10:50 AM)
Average45 °F76%30.01 "Hg
* Reported Apr 21 8:20 AM — May 6 8:50 AM, Warstein, Weather by CustomWeather, © 2016

Note: Actual official high and low records may vary slightly from our data, if they occured in-between our weather recording intervals... More about our weather records

Advertising

Warstein Weather History for the Previous 24 Hours

Scroll right to see more
 ConditionsComfort  
Time TempWeatherWind HumidityBarometerVisibility
8:50 AM
Fri, May 6
57 °FSunny.9 mph72%30.04 "Hg10 mi
8:20 AM55 °FSunny.8 mph77%30.07 "Hg10 mi
7:50 AM54 °FSunny.7 mph82%30.07 "Hg10 mi
7:20 AM52 °FSunny.6 mph88%30.07 "Hg10 mi
6:50 AM50 °FSunny.5 mph94%30.07 "Hg10 mi
6:20 AM48 °FClear.6 mph100%30.07 "Hg10 mi
5:50 AM46 °FClear.5 mph100%30.07 "Hg10 mi
5:20 AM46 °FClear.5 mph100%30.09 "Hg10 mi
4:50 AM48 °FClear.5 mph94%30.09 "Hg10 mi
4:20 AM48 °FClear.5 mph94%30.09 "Hg10 mi
3:50 AM50 °FClear.6 mph88%30.09 "Hg10 mi
3:20 AM50 °FClear.6 mph88%30.09 "Hg10 mi
2:50 AM52 °FClear.7 mph77%30.09 "Hg10 mi
2:20 AM52 °FClear.8 mph77%30.09 "Hg10 mi
1:50 AM52 °FClear.7 mph77%30.12 "Hg10 mi
1:20 AM52 °FClear.8 mph77%30.12 "Hg10 mi
12:50 AM52 °FClear.7 mph72%30.12 "Hg10 mi
12:20 AM52 °FClear.7 mph72%30.12 "Hg10 mi
11:50 PM
Thu, May 5
54 °FClear.7 mph67%30.12 "Hg10 mi
11:20 PM54 °FClear.7 mph63%30.15 "Hg10 mi
10:50 PM54 °FClear.7 mph67%30.15 "Hg10 mi
10:20 PM54 °FClear.5 mph67%30.15 "Hg10 mi
9:50 PM55 °FSunny.7 mph63%30.15 "Hg10 mi
9:20 PM55 °FSunny.7 mph63%30.15 "Hg10 mi
8:50 PM57 °FSunny.7 mph59%30.15 "Hg10 mi
8:20 PM61 °FSunny.8 mph48%30.15 "Hg10 mi
7:50 PM63 °FSunny.8 mph45%30.15 "Hg10 mi
7:20 PM63 °FSunny.10 mph42%30.15 "Hg10 mi
6:50 PM64 °FSunny.13 mph43%30.15 "Hg10 mi
6:20 PM64 °FSunny.12 mph40%30.18 "Hg10 mi
5:50 PM64 °FSunny.13 mph40%30.18 "Hg10 mi
5:20 PM64 °FSunny.13 mph37%30.18 "Hg10 mi
4:50 PM64 °FPassing clouds.15 mph40%30.18 "HgN/A
4:20 PM63 °FSunny.12 mph42%30.21 "Hg10 mi
3:50 PM63 °FSunny.16 mph42%30.21 "Hg10 mi
3:20 PM64 °FSunny.12 mph43%30.21 "Hg10 mi
2:50 PM63 °FSunny.15 mph39%30.24 "Hg10 mi
2:20 PM63 °FSunny.14 mph42%30.24 "Hg10 mi
1:50 PM63 °FSunny.9 mph45%30.27 "Hg10 mi
1:20 PM61 °FSunny.14 mph45%30.27 "Hg10 mi
12:50 PM59 °FSunny.10 mph51%30.27 "Hg10 mi
12:20 PM59 °FSunny.13 mph48%30.30 "Hg10 mi
11:50 AM59 °FPassing clouds.10 mph48%30.30 "HgN/A
11:20 AM57 °FPassing clouds.10 mph55%30.30 "HgN/A
10:50 AM55 °FPassing clouds.13 mph55%30.33 "HgN/A
10:20 AM55 °FPassing clouds.12 mph51%30.33 "HgN/A
Weather by CustomWeather, © 2016

See weather overviewHow to use our weather pages